Regional Weather Roundup
Issued by NWS Jackson, KY

Home | Current Version | Previous Version | Graphics & Text | Print | Product List | Glossary On
Versions: 1 2 3 4 5 6 7 8 9 10 11 12 13 14 15 16 17 18 19 20 21 22 23 24 25 26 27
000
ASUS43 KJKL 162010
RWRJKL

EAST KENTUCKY HOURLY WEATHER ROUNDUP
NATIONAL WEATHER SERVICE JACKSON KY
300 PM EST TUE JAN 16 2018

NOTE: "FAIR" INDICATES FEW OR NO CLOUDS BELOW 12,000 FEET WITH
NO SIGNIFICANT WEATHER AND/OR OBSTRUCTIONS TO VISIBILITY.

* THESE REPORTS ARE NOT UNDER NWS QUALITY CONTROL AND MAY NOT
  REPORT WEATHER SUCH AS PRECIPITATION AND FOG.

KYZ079-080-083-085-087-088-110-112-115-119-120-162100
...EASTERN KENTUCKY...

CITY           SKY/WX    TMP DP  RH WIND       PRES   REMARKS
JACKSON        LGT SNOW  15   9  76 W8        30.41R WCI   4
LONDON         LGT SNOW  15   9  76 NW6       30.44S WCI   6
SOMERSET*      LGT SNOW  12   9  85 N8        30.51R VSB 1   WCI   1
MONTICELLO*    LGT SNOW  14   8  77 NW8       30.51R WCI   3
WILLIAMSBURG*  CLOUDY    18  12  79 CALM      30.45R
MIDDLESBORO*   LGT SNOW  22  17  81 CALM      30.41S
HARLAN APT*    CLOUDY    23  19  86 SW5       30.37S WCI  17
PIKE CO APT*   LGT SNOW  20  19  95 NW8       30.37S WCI  11
BIG SANDY APT* LGT SNOW  20  16  86 NW3       30.40S
MOREHEAD APT*  SNOW      12   7  79 VRB7      30.47S VSB 1/4 WCI   2
ASHLAND*       LGT SNOW  19  15  84 NW7       30.47S VSB 3/4 WCI  10
$$

KYZ035-036-041-042-044-050-067-078-099-162100
...CENTRAL KENTUCKY...

CITY           SKY/WX    TMP DP  RH WIND       PRES   REMARKS
MT STERLING*   CLOUDY    12   7  79 NW8       30.48S WCI   1
FLEMING/MASON*   N/A     11   4  71 W12       30.48R WCI  -3
DANVILLE*        N/A     10   3  72 NW6       30.50R WCI   1
LEXINGTON        N/A     11   2  67 W9        30.48S WCI  -2
FRANKFORT        N/A     12   0  58 VRB5      30.50S WCI   4
LOUISVILLE       N/A     12   0  58 W7        30.55S WCI   1
LEBANON*       CLOUDY    10   0  61 W8        30.51F WCI  -1
GLASGOW*         N/A     16   3  57 NW7       30.54S WCI   6
BOWLING GREEN    N/A     12   0  58 W8        30.58S WCI   0
$$

KYZ091>093-OHZ055-061-077-WVZ005-015-034-035-042-162100
...SOUTHERN OHIO/WEST VIRGINIA...

CITY           SKY/WX    TMP DP  RH WIND       PRES   REMARKS
COVINGTON        N/A     11   1  64 W9        30.47R WCI  -2
COLUMBUS         N/A     10   1  67 SW7       30.44S WCI  -1
DAYTON           N/A      7   0  73 W13       30.45R WCI  -9
WILMINGTON       N/A      9   0  67 W10       30.44R WCI  -5
HUNTINGTON     SNOW      17  12  80 NW7       30.43F VSB 1/2 WCI   8
CHARLESTON     LGT SNOW  21  16  81 N7        30.39S VSB 1   WCI  12
BECKLEY        LGT SNOW  30  27  88 NW6       30.23F VSB 3/4 WCI  24
BLUEFIELD      CLOUDY    37  22  54 SW10G18   30.21F WCI  30
LOGAN CO APT*  LGT SNOW  21  19  93 CALM      30.33S VSB 3/4
$$

VAZ002-007-008-TNZ017-027-036-066-071-162100
...SOUTHWEST VIRGINIA/EAST TENNESSEE...

CITY           SKY/WX    TMP DP  RH WIND       PRES   REMARKS
WISE*          LGT SNOW  27  27 100 N8        30.27R WCI  18
JONESVILLE*    LGT SNOW  28  23  80 NW5       30.36S WCI  23
ABINGDON*      CLOUDY    41  27  57 CALM      30.25F
BRISTOL        CLOUDY    42  27  55 W7        30.27F
MORRISTOWN*    CLEAR     32  28  86 NW9       30.31S FOG     WCI  24
SEVIERVILLE*   FOG       34  32  93 NW8G16    30.34R VSB 1   WCI  27
KNOXVILLE      LGT SNOW  27  26  96 W9        30.37R VSB 3/4 WCI  18
LAFOLLETTE*    CLOUDY    23  14  68 VRB5      30.44R WCI  17
OAK RIDGE      LGT SNOW  27  25  92 CALM      30.40R FOG
CROSSVILLE     CLOUDY    16  10  77 NW7       30.38S WCI   6
NASHVILLE      PTSUNNY   16   5  62 N6        30.57S WCI   7
$$

...KEY TO REMARKS...
VSB - VISIBILITY IN MILES
WCI - WIND CHILL INDEX
HX  - HEAT INDEX

$$




USA.gov is the U.S. government's official web portal to all federal, state and local government web resources and services.